マクノート彗星

P/2011 P1 ( McNaught )

English version
Home page
Updated on February 1, 2012

---------------------------------------------------------------------

・ プロフィール

発見日 2011年8月1日
発見光度 18.5等
発見者 R. H. McNaught (Siding Spring)

・ 写真集

・ 軌道要素

Epoch 2012 Feb. 3.0 TT = JDT 2455960.5
T 2010 July 18.31357 TT                                 MPC
q   4.9703150            (2000.0)            P               Q
n   0.04713800     Peri.  344.19887     +0.99035580     +0.13782310
a   7.5896530      Node     7.91977     -0.11337720     +0.86489207
e   0.3451196      Incl.    5.89371     -0.07963036     +0.48266604
P  20.9
From 120 observations 2011 Aug. 1-2012 Jan. 25, mean residual 0".7.

・ 光度変化

        m1 = 7.5 + 5 logΔ + 10.0 log r

---------------------------------------------------------------------

軌道要素はM.P.E.C. 2012-B78に掲載されたものです。
光度グラフはComet for Windowsで作成したものです。

---------------------------------------------------------------------

Copyright(C) Seiichi Yoshida (comet@aerith.net). All rights reserved.